Coldwater, MI

3:11 AM EDT on March 25, 2017 (GMT -0400)
Branch County Memorial

Weather History for KOEB - December, 2013

Change the Weather History Date:

Thursday, December 5, 2013

  Actual Average (KJYM) Record (KJYM)
Temperature  
Mean Temperature 44 °F -  
Max Temperature 58 °F 36 °F 69 °F (2001)
Min Temperature 29 °F 22 °F -2 °F (1976)
Degree Days  
Heating Degree Days 22    
Moisture  
Dew Point 32 °F    
Average Humidity 78    
Maximum Humidity 93    
Minimum Humidity 67    
Precipitation  
Precipitation 0.00 in - - ()
Sea Level Pressure  
Sea Level Pressure 29.90 in    
Wind  
Wind Speed 13 mph (West)    
Max Wind Speed 22 mph    
Max Gust Speed 30 mph    
Visibility 9 miles    
Events      
Averages and records for this station are not official NWS values.
T = Trace of Precipitation, MM = Missing Value Source: NWS Daily Summary

Daily Weather History Graph

Daily Weather History Graph

Search for Another Location

Airport or City:

Trip Planner

Search our weather history database for the weather conditions in past years. The results will help you decide how hot, cold, wet, or windy it might be!

Date:

Astronomy

Dec. 05, 2013 Rise Set
Actual Time 7:52 AM EST 5:09 PM EST
Civil Twilight 7:21 AM EST 5:40 PM EST
Nautical Twilight 6:46 AM EST 6:15 PM EST
Astronomical Twilight 6:12 AM EST 6:48 PM EST
Moon 10:11 AM EST (12/5) 8:30 PM EST (12/5)
Length of Visible Light 10h 18m
Length of Day
9h 16m
Waxing Crescent, 10% of the Moon is Illuminated
Dec 5
Waxing Crescent
Dec 9
First Quarter
Dec 17
Full
Dec 25
Last Quarter
Jan 1
New

Hourly Weather History & Observations

Time (EST) Temp. Windchill Dew Point Humidity Pressure Visibility Wind Dir Wind Speed Gust Speed Precip Events Conditions
12:15 AM 58.5 °F - 55.4 °F 90% 29.61 in 7.0 mi SSW 9.2 mph - N/A   Overcast
12:34 AM 58.1 °F - 55.4 °F 91% 29.61 in 7.0 mi SSW 10.4 mph - N/A   Overcast
12:55 AM 58.1 °F - 55.4 °F 91% 29.61 in 7.0 mi SSW 11.5 mph 16.1 mph N/A   Overcast
1:15 AM 58.1 °F - 55.2 °F 90% 29.61 in 7.0 mi SW 15.0 mph 20.7 mph N/A   Overcast
1:34 AM 58.5 °F - 54.7 °F 87% 29.61 in 10.0 mi SW 13.8 mph 21.9 mph N/A   Overcast
1:55 AM 58.5 °F - 54.5 °F 87% 29.63 in 10.0 mi SW 15.0 mph 21.9 mph N/A   Overcast
2:15 AM 58.1 °F - 54.1 °F 87% 29.63 in 7.0 mi SW 16.1 mph 24.2 mph N/A   Overcast
2:34 AM 57.6 °F - 53.6 °F 87% 29.63 in 7.0 mi West 12.7 mph 17.3 mph N/A   Overcast
2:55 AM 56.3 °F - 50.7 °F 82% 29.64 in 7.0 mi WSW 17.3 mph 25.3 mph N/A   Overcast
3:15 AM 55.8 °F - 50.2 °F 82% 29.66 in 7.0 mi WSW 15.0 mph 19.6 mph N/A   Overcast
3:34 AM 51.4 °F - 46.9 °F 85% 29.69 in 5.0 mi West 16.1 mph 27.6 mph N/A   Light Drizzle
3:55 AM 48.0 °F - 45.1 °F 90% 29.71 in 5.0 mi West 19.6 mph 29.9 mph N/A   Overcast
4:15 AM 46.9 °F - 45.0 °F 93% 29.70 in 5.0 mi West 11.5 mph 19.6 mph N/A   Overcast
4:35 AM 47.3 °F - 45.0 °F 92% 29.70 in 7.0 mi WSW 11.5 mph 16.1 mph N/A   Overcast
4:55 AM 47.3 °F - 42.4 °F 83% 29.71 in 7.0 mi WSW 16.1 mph 23.0 mph N/A   Mostly Cloudy
5:14 AM 45.3 °F 39.0 °F 39.2 °F 79% 29.72 in 10.0 mi WSW 13.8 mph - N/A   Mostly Cloudy
5:35 AM 44.6 °F 38.4 °F 39.0 °F 81% 29.73 in 10.0 mi WSW 12.7 mph 19.6 mph N/A   Overcast
5:55 AM 43.7 °F 37.3 °F 38.3 °F 81% 29.74 in 10.0 mi WSW 12.7 mph - N/A   Overcast
6:14 AM 43.0 °F 35.4 °F 37.8 °F 82% 29.76 in 10.0 mi WSW 16.1 mph 20.7 mph N/A   Overcast
6:35 AM 42.3 °F 34.1 °F 37.0 °F 82% 29.76 in 10.0 mi WSW 17.3 mph 23.0 mph N/A   Overcast
6:55 AM 41.4 °F 33.6 °F 36.5 °F 83% 29.77 in 10.0 mi WSW 15.0 mph 20.7 mph N/A   Overcast
7:14 AM 41.0 °F 33.1 °F 36.0 °F 82% 29.79 in 10.0 mi West 15.0 mph - N/A   Overcast
7:35 AM 39.2 °F 30.2 °F 34.3 °F 83% 29.79 in 7.0 mi West 17.3 mph 23.0 mph N/A   Overcast
7:55 AM 37.6 °F 30.0 °F 32.9 °F 83% 29.80 in 10.0 mi West 11.5 mph - N/A   Overcast
8:14 AM 36.1 °F 27.7 °F 32.0 °F 85% 29.82 in 10.0 mi WSW 12.7 mph 17.3 mph N/A   Scattered Clouds
8:35 AM 35.2 °F 26.2 °F 30.7 °F 84% 29.83 in 10.0 mi West 13.8 mph 21.9 mph N/A   Scattered Clouds
8:55 AM 35.2 °F 26.2 °F 30.9 °F 84% 29.86 in 10.0 mi West 13.8 mph 20.7 mph N/A   Mostly Cloudy
9:14 AM 35.6 °F 25.9 °F 30.7 °F 82% 29.87 in 10.0 mi West 16.1 mph 21.9 mph N/A   Overcast
9:35 AM 35.6 °F 24.2 °F 30.0 °F 80% 29.89 in 10.0 mi West 21.9 mph 26.5 mph N/A   Overcast
9:55 AM 35.1 °F 25.2 °F 29.1 °F 79% 29.89 in 10.0 mi West 16.1 mph 26.5 mph N/A   Overcast
10:14 AM 34.9 °F 24.6 °F 28.9 °F 79% 29.89 in 10.0 mi West 17.3 mph 27.6 mph N/A   Overcast
10:35 AM 36.3 °F 26.4 °F 29.7 °F 77% 29.90 in 10.0 mi West 17.3 mph 25.3 mph N/A   Overcast
10:54 AM 35.6 °F 26.2 °F 29.5 °F 78% 29.91 in 10.0 mi West 15.0 mph 20.7 mph N/A   Overcast
11:15 AM 35.1 °F 24.1 °F 28.4 °F 77% 29.91 in 10.0 mi West 19.6 mph 25.3 mph N/A   Overcast
11:35 AM 35.6 °F 25.9 °F 28.4 °F 75% 29.92 in 10.0 mi West 16.1 mph 25.3 mph N/A   Overcast
11:54 AM 35.1 °F 24.8 °F 27.9 °F 75% 29.93 in 10.0 mi West 17.3 mph 23.0 mph N/A   Overcast
12:15 PM 34.7 °F 24.3 °F 27.5 °F 75% 29.92 in 10.0 mi West 17.3 mph 24.2 mph N/A   Overcast
12:35 PM 34.9 °F 24.6 °F 27.5 °F 74% 29.93 in 10.0 mi West 17.3 mph 24.2 mph N/A   Overcast
12:54 PM 34.3 °F 23.2 °F 26.8 °F 74% 29.93 in 10.0 mi West 19.6 mph 26.5 mph N/A   Overcast
1:15 PM 33.8 °F 23.5 °F 26.6 °F 75% 29.94 in 10.0 mi West 16.1 mph 24.2 mph N/A   Overcast
1:35 PM 34.0 °F 24.2 °F 26.1 °F 73% 29.95 in 10.0 mi West 15.0 mph 19.6 mph N/A   Overcast
1:54 PM 34.9 °F 26.2 °F 25.9 °F 70% 29.94 in 10.0 mi WNW 12.7 mph 19.6 mph N/A   Overcast
2:15 PM 34.3 °F 25.9 °F 26.1 °F 72% 29.93 in 10.0 mi WNW 11.5 mph 18.4 mph N/A   Overcast
2:34 PM 34.7 °F 25.5 °F 25.7 °F 70% 29.95 in 10.0 mi WNW 13.8 mph 19.6 mph N/A   Overcast
2:55 PM 34.2 °F 24.4 °F 24.3 °F 67% 29.97 in 10.0 mi WNW 15.0 mph 23.0 mph N/A   Overcast
3:15 PM 33.8 °F 24.3 °F 25.0 °F 70% 29.96 in 10.0 mi West 13.8 mph 18.4 mph N/A   Overcast
3:34 PM 33.4 °F 23.9 °F 24.6 °F 70% 29.98 in 10.0 mi West 13.8 mph 20.7 mph N/A   Overcast
3:55 PM 32.9 °F 23.7 °F 24.6 °F 72% 29.99 in 10.0 mi West 12.7 mph - N/A   Mostly Cloudy
4:15 PM 32.4 °F 22.1 °F 23.7 °F 70% 30.01 in 10.0 mi West 15.0 mph - N/A   Scattered Clouds
4:34 PM 32.0 °F 21.6 °F 22.8 °F 69% 30.02 in 10.0 mi West 15.0 mph 18.4 mph N/A   Clear
4:55 PM 31.8 °F 21.4 °F 22.5 °F 68% 30.04 in 10.0 mi West 15.0 mph 18.4 mph N/A   Clear
5:15 PM 31.5 °F 21.4 °F 22.8 °F 70% 30.05 in 10.0 mi West 13.8 mph 17.3 mph N/A   Scattered Clouds
5:34 PM 31.3 °F 22.7 °F 23.0 °F 71% 30.05 in 10.0 mi West 10.4 mph - N/A   Scattered Clouds
5:55 PM 30.6 °F 21.8 °F 21.9 °F 70% 30.04 in 10.0 mi WNW 10.4 mph - N/A   Scattered Clouds
6:15 PM 30.4 °F 22.2 °F 22.1 °F 71% 30.03 in 10.0 mi WNW 9.2 mph - N/A   Clear
6:34 PM 30.4 °F 22.9 °F 22.5 °F 72% 30.05 in 10.0 mi WNW 8.1 mph - N/A   Scattered Clouds
6:55 PM 30.6 °F 23.1 °F 22.6 °F 72% 30.07 in 10.0 mi West 8.1 mph - N/A   Mostly Cloudy
7:14 PM 30.2 °F 20.8 °F 22.1 °F 72% 30.08 in 10.0 mi West 11.5 mph 18.4 mph N/A   Overcast
7:35 PM 30.2 °F 20.8 °F 21.7 °F 71% 30.11 in 10.0 mi West 11.5 mph - N/A   Mostly Cloudy
7:55 PM 30.2 °F 22.6 °F 22.1 °F 72% 30.12 in 10.0 mi West 8.1 mph - N/A   Mostly Cloudy
8:14 PM 30.2 °F 21.3 °F 22.1 °F 72% 30.10 in 10.0 mi West 10.4 mph - N/A   Overcast
8:35 PM 30.0 °F 20.5 °F 21.4 °F 70% 30.09 in 10.0 mi WNW 11.5 mph - N/A   Mostly Cloudy
8:55 PM 30.0 °F 20.5 °F 21.7 °F 71% 30.10 in 10.0 mi WNW 11.5 mph - N/A   Scattered Clouds
9:14 PM 30.0 °F 22.4 °F 22.1 °F 72% 30.11 in 10.0 mi West 8.1 mph - N/A   Scattered Clouds
9:35 PM 29.8 °F 23.0 °F 22.5 °F 74% 30.12 in 10.0 mi West 6.9 mph - N/A   Mostly Cloudy
9:55 PM 29.8 °F 21.5 °F 22.1 °F 73% 30.11 in 10.0 mi West 9.2 mph - N/A   Mostly Cloudy
10:14 PM 29.8 °F 20.9 °F 22.1 °F 73% 30.13 in 10.0 mi WNW 10.4 mph - N/A   Mostly Cloudy
10:35 PM 29.8 °F 20.9 °F 22.1 °F 73% 30.15 in 10.0 mi West 10.4 mph 16.1 mph N/A   Overcast
10:55 PM 29.8 °F 20.9 °F 22.1 °F 73% 30.14 in 10.0 mi West 10.4 mph - N/A   Scattered Clouds
11:14 PM 29.7 °F 22.8 °F 22.1 °F 73% 30.13 in 10.0 mi West 6.9 mph - N/A   Mostly Cloudy
11:35 PM 29.8 °F 20.9 °F 22.1 °F 73% 30.14 in 10.0 mi WNW 10.4 mph - N/A   Overcast
11:55 PM 29.5 °F 18.8 °F 22.1 °F 74% 30.14 in 10.0 mi West 13.8 mph - N/A   Overcast